Time,TemperatureF,DewpointF,PressureIn,WindDirection,WindDirectionDegrees,WindSpeedMPH,WindSpeedGustMPH,Humidity,HourlyPrecipIn,Conditions,Clouds,dailyrainin,SoftwareType,DateUTC
2013-11-12 00:01:00,47.2,44.2,29.88,WNW,293,0.0,0.4,89,0.00,,,0.00,WUHU216HW,2013-11-12 08:01:00,
2013-11-12 00:06:00,47.2,44.2,29.88,NNW,338,0.4,0.9,89,0.00,,,0.00,WUHU216HW,2013-11-12 08:06:00,
2013-11-12 00:11:00,47.2,44.5,29.88,NNW,338,0.0,0.9,90,0.00,,,0.00,WUHU216HW,2013-11-12 08:11:00,
2013-11-12 00:16:00,47.2,44.5,29.88,NNW,338,0.4,0.7,90,0.00,,,0.00,WUHU216HW,2013-11-12 08:16:00,
2013-11-12 00:21:00,47.3,44.6,29.89,NNW,338,0.4,1.1,90,0.00,,,0.00,WUHU216HW,2013-11-12 08:21:00,
2013-11-12 00:26:00,47.3,44.6,29.89,NNW,338,0.0,1.1,90,0.00,,,0.00,WUHU216HW,2013-11-12 08:26:00,
2013-11-12 00:31:00,47.5,44.8,29.89,NNW,338,0.9,0.9,90,0.00,,,0.00,WUHU216HW,2013-11-12 08:31:00,
2013-11-12 00:36:00,47.5,44.8,29.89,NNW,338,0.9,0.9,90,0.00,,,0.00,WUHU216HW,2013-11-12 08:36:00,
2013-11-12 00:41:00,47.7,45.0,29.89,NNW,338,0.0,1.1,90,0.00,,,0.00,WUHU216HW,2013-11-12 08:41:00,
2013-11-12 00:46:00,47.7,45.3,29.89,NNW,338,0.0,1.1,91,0.00,,,0.00,WUHU216HW,2013-11-12 08:46:00,
2013-11-12 00:51:00,47.9,45.2,29.89,NNW,338,0.7,0.9,90,0.00,,,0.00,WUHU216HW,2013-11-12 08:51:00,
2013-11-12 00:56:00,47.9,45.5,29.89,NNW,338,0.0,0.9,91,0.00,,,0.00,WUHU216HW,2013-11-12 08:56:00,
2013-11-12 01:01:00,48.1,45.6,29.89,NNW,338,1.1,1.1,91,0.00,,,0.00,WUHU216HW,2013-11-12 09:01:00,
2013-11-12 01:06:00,48.1,45.6,29.90,NW,315,0.4,1.1,91,0.00,,,0.00,WUHU216HW,2013-11-12 09:06:00,
2013-11-12 01:11:00,48.1,45.6,29.90,North,0,1.1,1.8,91,0.00,,,0.00,WUHU216HW,2013-11-12 09:11:00,
2013-11-12 01:16:00,48.4,46.0,29.90,NNW,338,0.7,1.8,91,0.00,,,0.00,WUHU216HW,2013-11-12 09:16:00,
2013-11-12 01:21:00,48.6,46.2,29.90,North,0,1.6,1.8,91,0.00,,,0.00,WUHU216HW,2013-11-12 09:21:00,
2013-11-12 01:26:00,48.8,46.3,29.89,North,0,0.4,1.8,91,0.00,,,0.00,WUHU216HW,2013-11-12 09:26:00,
2013-11-12 01:31:00,49.0,46.4,29.89,North,0,0.0,1.6,91,0.00,,,0.00,WUHU216HW,2013-11-12 09:31:00,
2013-11-12 01:36:00,49.1,46.6,29.89,North,0,1.3,1.3,91,0.00,,,0.00,WUHU216HW,2013-11-12 09:36:00,
2013-11-12 01:41:00,49.3,46.8,29.89,North,0,0.9,1.6,91,0.00,,,0.00,WUHU216HW,2013-11-12 09:41:00,
2013-11-12 01:46:00,49.3,46.5,29.90,North,0,1.1,1.6,90,0.00,,,0.00,WUHU216HW,2013-11-12 09:46:00,
2013-11-12 01:51:00,49.3,46.5,29.90,North,0,0.4,2.0,90,0.00,,,0.00,WUHU216HW,2013-11-12 09:51:00,
2013-11-12 01:56:00,49.5,46.7,29.90,North,0,0.2,2.0,90,0.00,,,0.00,WUHU216HW,2013-11-12 09:56:00,
2013-11-12 02:01:00,49.7,46.8,29.90,North,0,0.4,2.0,90,0.00,,,0.00,WUHU216HW,2013-11-12 10:01:00,
2013-11-12 02:06:00,49.9,47.0,29.90,North,0,1.8,1.8,90,0.00,,,0.00,WUHU216HW,2013-11-12 10:06:00,
2013-11-12 02:11:00,50.0,46.9,29.90,NW,315,0.2,2.5,89,0.00,,,0.00,WUHU216HW,2013-11-12 10:11:00,
2013-11-12 02:16:00,50.2,46.7,29.90,WSW,248,0.2,2.5,88,0.00,,,0.00,WUHU216HW,2013-11-12 10:16:00,
2013-11-12 02:21:00,50.4,46.9,29.90,West,270,0.2,1.3,88,0.00,,,0.00,WUHU216HW,2013-11-12 10:21:00,
2013-11-12 02:26:00,50.4,46.6,29.90,West,270,0.0,0.9,87,0.00,,,0.00,WUHU216HW,2013-11-12 10:26:00,
2013-11-12 02:31:00,50.6,46.8,29.90,NNE,23,0.9,1.3,87,0.00,,,0.00,WUHU216HW,2013-11-12 10:31:00,
2013-11-12 02:36:00,50.8,47.0,29.91,WSW,248,0.0,1.8,87,0.00,,,0.00,WUHU216HW,2013-11-12 10:36:00,
2013-11-12 02:41:00,50.6,46.8,29.91,West,270,0.2,3.1,87,0.00,,,0.00,WUHU216HW,2013-11-12 10:41:00,
2013-11-12 02:46:00,50.6,46.4,29.92,SW,225,0.0,3.1,86,0.00,,,0.00,WUHU216HW,2013-11-12 10:46:00,
2013-11-12 02:51:00,50.6,46.4,29.93,SW,225,0.0,1.8,86,0.00,,,0.00,WUHU216HW,2013-11-12 10:51:00,
2013-11-12 02:56:00,50.6,46.4,29.93,NW,315,0.4,1.8,86,0.00,,,0.00,WUHU216HW,2013-11-12 10:56:00,
2013-11-12 03:01:00,50.4,46.3,29.93,WNW,293,4.3,4.3,86,0.00,,,0.00,WUHU216HW,2013-11-12 11:01:00,
2013-11-12 03:06:00,50.4,46.3,29.92,WSW,248,0.2,4.3,86,0.00,,,0.00,WUHU216HW,2013-11-12 11:06:00,
2013-11-12 03:11:00,50.4,46.6,29.91,West,270,0.4,4.3,87,0.00,,,0.00,WUHU216HW,2013-11-12 11:11:00,
2013-11-12 03:16:00,50.4,46.6,29.93,SSW,203,0.2,1.3,87,0.00,,,0.00,WUHU216HW,2013-11-12 11:16:00,
2013-11-12 03:21:00,50.4,46.6,29.92,SW,225,1.1,1.3,87,0.00,,,0.00,WUHU216HW,2013-11-12 11:21:00,
2013-11-12 03:26:00,50.4,46.6,29.93,SSW,203,0.4,1.6,87,0.00,,,0.00,WUHU216HW,2013-11-12 11:26:00,
2013-11-12 03:31:00,50.2,46.5,29.93,SSW,203,0.0,2.9,87,0.00,,,0.00,WUHU216HW,2013-11-12 11:31:00,
2013-11-12 03:36:00,50.4,46.6,29.93,East,90,0.0,2.9,87,0.00,,,0.00,WUHU216HW,2013-11-12 11:36:00,
2013-11-12 03:41:00,50.4,46.6,29.93,East,90,0.7,1.1,87,0.00,,,0.00,WUHU216HW,2013-11-12 11:41:00,
2013-11-12 03:46:00,50.4,46.6,29.93,East,90,0.2,1.1,87,0.00,,,0.00,WUHU216HW,2013-11-12 11:46:00,
2013-11-12 03:51:00,50.4,46.6,29.93,East,90,0.4,0.9,87,0.00,,,0.00,WUHU216HW,2013-11-12 11:51:00,
2013-11-12 03:56:00,50.6,46.8,29.93,ENE,68,0.0,0.9,87,0.00,,,0.00,WUHU216HW,2013-11-12 11:56:00,
2013-11-12 04:01:00,50.6,46.8,29.93,ENE,68,0.0,0.4,87,0.00,,,0.00,WUHU216HW,2013-11-12 12:01:00,
2013-11-12 04:06:00,50.6,46.8,29.94,SSW,203,0.2,0.4,87,0.00,,,0.00,WUHU216HW,2013-11-12 12:06:00,
2013-11-12 04:11:00,50.6,46.8,29.94,North,0,1.1,1.6,87,0.00,,,0.00,WUHU216HW,2013-11-12 12:11:00,
2013-11-12 04:16:00,50.6,46.8,29.94,ENE,68,0.0,1.6,87,0.00,,,0.00,WUHU216HW,2013-11-12 12:16:00,
2013-11-12 04:21:00,50.4,46.9,29.95,SW,225,1.1,1.1,88,0.00,,,0.00,WUHU216HW,2013-11-12 12:21:00,
2013-11-12 04:26:00,50.4,46.9,29.95,SE,135,1.6,1.6,88,0.00,,,0.00,WUHU216HW,2013-11-12 12:26:00,
2013-11-12 04:31:00,50.6,47.1,29.95,SSW,203,1.3,1.8,88,0.00,,,0.00,WUHU216HW,2013-11-12 12:31:00,
2013-11-12 04:36:00,50.8,47.3,29.95,SSW,203,1.6,2.7,88,0.00,,,0.00,WUHU216HW,2013-11-12 12:36:00,
2013-11-12 04:41:00,50.8,47.3,29.96,SSW,203,1.1,2.7,88,0.00,,,0.00,WUHU216HW,2013-11-12 12:41:00,
2013-11-12 04:46:00,50.9,47.4,29.96,SSW,203,3.4,3.4,88,0.00,,,0.00,WUHU216HW,2013-11-12 12:46:00,
2013-11-12 04:51:00,51.1,47.6,29.96,SW,225,0.4,3.4,88,0.00,,,0.00,WUHU216HW,2013-11-12 12:51:00,
2013-11-12 04:56:00,51.1,47.6,29.96,SSW,203,1.3,5.6,88,0.00,,,0.00,WUHU216HW,2013-11-12 12:56:00,
2013-11-12 05:01:00,51.3,47.8,29.96,SW,225,1.1,5.6,88,0.00,,,0.00,WUHU216HW,2013-11-12 13:01:00,
2013-11-12 05:06:00,51.3,47.8,29.96,SSE,158,0.7,2.2,88,0.00,,,0.00,WUHU216HW,2013-11-12 13:06:00,
2013-11-12 05:11:00,51.3,47.8,29.96,WSW,248,0.4,1.3,88,0.00,,,0.00,WUHU216HW,2013-11-12 13:11:00,
2013-11-12 05:16:00,51.1,47.6,29.96,West,270,1.1,1.8,88,0.00,,,0.00,WUHU216HW,2013-11-12 13:16:00,
2013-11-12 05:21:00,51.1,48.0,29.96,WSW,248,0.9,1.8,89,0.00,,,0.00,WUHU216HW,2013-11-12 13:21:00,
2013-11-12 05:26:00,51.1,48.0,29.97,SW,225,0.2,2.9,89,0.00,,,0.00,WUHU216HW,2013-11-12 13:26:00,
2013-11-12 05:31:00,50.9,47.8,29.97,West,270,1.6,2.9,89,0.00,,,0.00,WUHU216HW,2013-11-12 13:31:00,
2013-11-12 05:36:00,50.9,47.8,29.97,SW,225,1.1,2.5,89,0.00,,,0.00,WUHU216HW,2013-11-12 13:36:00,
2013-11-12 05:41:00,50.8,47.6,29.97,WSW,248,0.4,2.0,89,0.00,,,0.00,WUHU216HW,2013-11-12 13:41:00,
2013-11-12 05:46:00,50.8,47.6,29.97,West,270,0.2,1.3,89,0.00,,,0.00,WUHU216HW,2013-11-12 13:46:00,
2013-11-12 05:51:00,50.8,47.9,29.97,West,270,0.4,0.9,90,0.00,,,0.00,WUHU216HW,2013-11-12 13:51:00,
2013-11-12 05:56:00,50.8,47.6,29.98,SSW,203,0.0,0.9,89,0.00,,,0.00,WUHU216HW,2013-11-12 13:56:00,
2013-11-12 06:01:00,50.8,47.6,29.98,SSW,203,1.3,1.3,89,0.00,,,0.00,WUHU216HW,2013-11-12 14:01:00,
2013-11-12 06:06:00,50.8,47.6,29.98,SSW,203,0.0,1.3,89,0.00,,,0.00,WUHU216HW,2013-11-12 14:06:00,
2013-11-12 06:11:00,50.6,47.7,29.99,SSW,203,0.2,1.3,90,0.00,,,0.00,WUHU216HW,2013-11-12 14:11:00,
2013-11-12 06:16:00,50.6,47.7,29.98,WSW,248,0.0,1.1,90,0.00,,,0.00,WUHU216HW,2013-11-12 14:16:00,
2013-11-12 06:21:00,50.6,47.7,29.98,WSW,248,1.1,1.1,90,0.00,,,0.00,WUHU216HW,2013-11-12 14:21:00,
2013-11-12 06:26:00,50.6,47.7,29.98,WNW,293,0.4,1.3,90,0.00,,,0.00,WUHU216HW,2013-11-12 14:26:00,
2013-11-12 06:31:00,50.4,47.5,29.98,WNW,293,0.0,1.3,90,0.00,,,0.00,WUHU216HW,2013-11-12 14:31:00,
2013-11-12 06:36:00,50.4,47.5,29.99,West,270,0.0,1.1,90,0.00,,,0.00,WUHU216HW,2013-11-12 14:36:00,
2013-11-12 06:41:00,50.4,47.5,29.99,West,270,1.3,1.3,90,0.00,,,0.00,WUHU216HW,2013-11-12 14:41:00,
2013-11-12 06:46:00,50.4,47.5,29.99,WSW,248,0.0,1.3,90,0.00,,,0.00,WUHU216HW,2013-11-12 14:46:00,
2013-11-12 06:51:00,50.4,47.5,29.99,South,180,0.2,1.3,90,0.00,,,0.00,WUHU216HW,2013-11-12 14:51:00,
2013-11-12 06:56:00,50.4,47.8,29.99,SSE,158,0.4,2.5,91,0.00,,,0.00,WUHU216HW,2013-11-12 14:56:00,
2013-11-12 07:01:00,50.2,47.6,29.99,WSW,248,0.0,2.5,91,0.00,,,0.00,WUHU216HW,2013-11-12 15:01:00,
2013-11-12 07:06:00,50.2,47.6,29.99,SW,225,0.7,1.1,91,0.00,,,0.00,WUHU216HW,2013-11-12 15:06:00,
2013-11-12 07:11:00,50.4,47.8,29.99,SW,225,0.0,1.8,91,0.00,,,0.00,WUHU216HW,2013-11-12 15:11:00,
2013-11-12 07:16:00,50.4,47.8,29.99,SSW,203,0.0,2.2,91,0.00,,,0.00,WUHU216HW,2013-11-12 15:16:00,
2013-11-12 07:21:00,50.2,47.6,30.00,SW,225,0.0,2.2,91,0.00,,,0.00,WUHU216HW,2013-11-12 15:21:00,
2013-11-12 07:26:00,50.2,47.6,30.00,SSW,203,0.4,1.1,91,0.00,,,0.00,WUHU216HW,2013-11-12 15:26:00,
2013-11-12 07:31:00,50.2,47.6,30.00,SW,225,0.4,1.1,91,0.00,,,0.00,WUHU216HW,2013-11-12 15:31:00,
2013-11-12 07:36:00,50.2,47.6,30.00,SE,135,0.7,1.1,91,0.00,,,0.00,WUHU216HW,2013-11-12 15:36:00,
2013-11-12 07:41:00,50.2,47.6,30.00,SSE,158,0.0,1.1,91,0.00,,,0.00,WUHU216HW,2013-11-12 15:41:00,
2013-11-12 07:46:00,50.2,47.6,30.01,SSW,203,0.7,1.3,91,0.00,,,0.00,WUHU216HW,2013-11-12 15:46:00,
2013-11-12 07:51:00,50.2,47.6,30.01,NE,45,0.0,1.8,91,0.00,,,0.00,WUHU216HW,2013-11-12 15:51:00,
2013-11-12 07:56:00,50.2,47.6,30.02,SSW,203,1.6,1.8,91,0.00,,,0.00,WUHU216HW,2013-11-12 15:56:00,
2013-11-12 08:01:00,50.2,47.6,30.02,West,270,0.7,1.6,91,0.00,,,0.00,WUHU216HW,2013-11-12 16:01:00,
2013-11-12 08:06:00,50.2,47.6,30.02,SW,225,0.0,1.6,91,0.00,,,0.00,WUHU216HW,2013-11-12 16:06:00,
2013-11-12 08:11:00,50.2,47.6,30.03,SW,225,0.0,1.3,91,0.00,,,0.00,WUHU216HW,2013-11-12 16:11:00,
2013-11-12 08:16:00,50.4,47.8,30.03,West,270,0.0,0.9,91,0.00,,,0.00,WUHU216HW,2013-11-12 16:16:00,
2013-11-12 08:21:00,50.2,47.6,30.03,West,270,0.0,0.9,91,0.00,,,0.00,WUHU216HW,2013-11-12 16:21:00,
2013-11-12 08:26:00,50.4,48.1,30.04,NW,315,0.0,0.4,92,0.00,,,0.00,WUHU216HW,2013-11-12 16:26:00,
2013-11-12 08:31:00,50.4,48.1,30.04,WNW,293,0.0,0.9,92,0.00,,,0.00,WUHU216HW,2013-11-12 16:31:00,
2013-11-12 08:36:00,50.4,48.1,30.05,WNW,293,0.0,0.9,92,0.00,,,0.00,WUHU216HW,2013-11-12 16:36:00,
2013-11-12 08:41:00,50.4,48.1,30.05,West,270,0.0,1.1,92,0.00,,,0.00,WUHU216HW,2013-11-12 16:41:00,
2013-11-12 08:46:00,50.4,48.1,30.06,SW,225,0.7,1.8,92,0.00,,,0.00,WUHU216HW,2013-11-12 16:46:00,
2013-11-12 08:51:00,50.4,48.1,30.06,West,270,0.4,1.8,92,0.00,,,0.00,WUHU216HW,2013-11-12 16:51:00,
2013-11-12 08:56:00,50.4,48.1,30.06,West,270,0.0,1.3,92,0.00,,,0.00,WUHU216HW,2013-11-12 16:56:00,
2013-11-12 09:01:00,50.4,48.1,30.06,SW,225,0.7,1.6,92,0.00,,,0.00,WUHU216HW,2013-11-12 17:01:00,
2013-11-12 09:06:00,50.4,48.1,30.06,SW,225,0.0,1.6,92,0.00,,,0.00,WUHU216HW,2013-11-12 17:06:00,
2013-11-12 09:11:00,50.4,48.1,30.06,SW,225,0.0,0.7,92,0.00,,,0.00,WUHU216HW,2013-11-12 17:11:00,
2013-11-12 09:16:00,50.6,48.2,30.06,SW,225,0.0,0.9,92,0.00,,,0.00,WUHU216HW,2013-11-12 17:16:00,
2013-11-12 09:21:00,50.6,48.2,30.07,SW,225,0.0,0.9,92,0.00,,,0.00,WUHU216HW,2013-11-12 17:21:00,
2013-11-12 09:26:00,50.6,48.2,30.07,NNW,338,0.2,0.9,92,0.00,,,0.00,WUHU216HW,2013-11-12 17:26:00,
2013-11-12 09:31:00,50.8,48.4,30.07,NNW,338,0.0,0.9,92,0.00,,,0.00,WUHU216HW,2013-11-12 17:31:00,
2013-11-12 09:36:00,50.8,48.4,30.07,NNW,338,0.0,0.2,92,0.00,,,0.00,WUHU216HW,2013-11-12 17:36:00,
2013-11-12 09:41:00,50.8,48.4,30.08,NNW,338,0.0,0.7,92,0.00,,,0.00,WUHU216HW,2013-11-12 17:41:00,
2013-11-12 09:46:00,50.9,48.6,30.08,NNW,338,0.0,0.7,92,0.00,,,0.00,WUHU216HW,2013-11-12 17:46:00,
2013-11-12 09:51:00,50.9,48.6,30.08,NNW,338,0.0,0.0,92,0.00,,,0.00,WUHU216HW,2013-11-12 17:51:00,
2013-11-12 09:56:00,51.1,48.8,30.08,NNW,338,0.0,0.7,92,0.00,,,0.00,WUHU216HW,2013-11-12 17:56:00,
2013-11-12 10:01:00,51.1,48.8,30.09,NNW,338,0.0,0.7,92,0.00,,,0.00,WUHU216HW,2013-11-12 18:01:00,
2013-11-12 10:06:00,51.1,48.8,30.10,NNW,338,0.4,0.4,92,0.00,,,0.00,WUHU216HW,2013-11-12 18:06:00,
2013-11-12 10:11:00,51.3,49.0,30.09,NNW,338,0.0,0.4,92,0.00,,,0.00,WUHU216HW,2013-11-12 18:11:00,
2013-11-12 10:16:00,51.3,49.0,30.10,NNW,338,0.4,0.4,92,0.00,,,0.00,WUHU216HW,2013-11-12 18:16:00,
2013-11-12 10:21:00,51.3,49.3,30.10,NNW,338,0.0,0.4,93,0.00,,,0.00,WUHU216HW,2013-11-12 18:21:00,
2013-11-12 10:26:00,51.5,49.5,30.10,NNW,338,0.0,0.4,93,0.00,,,0.00,WUHU216HW,2013-11-12 18:26:00,
2013-11-12 10:31:00,51.5,49.1,30.10,NNW,338,0.0,0.0,92,0.00,,,0.00,WUHU216HW,2013-11-12 18:31:00,
2013-11-12 10:36:00,51.5,49.1,30.10,NNW,338,0.0,0.4,92,0.00,,,0.00,WUHU216HW,2013-11-12 18:36:00,
2013-11-12 10:41:00,51.5,49.1,30.10,SW,225,0.4,1.1,92,0.00,,,0.00,WUHU216HW,2013-11-12 18:41:00,
2013-11-12 10:46:00,51.5,49.1,30.10,ENE,68,0.0,1.1,92,0.00,,,0.00,WUHU216HW,2013-11-12 18:46:00,
2013-11-12 10:51:00,51.5,49.1,30.11,ESE,113,0.0,1.8,92,0.00,,,0.00,WUHU216HW,2013-11-12 18:51:00,
2013-11-12 10:56:00,51.5,49.1,30.10,SE,135,0.0,1.8,92,0.00,,,0.00,WUHU216HW,2013-11-12 18:56:00,
2013-11-12 11:01:00,51.7,49.3,30.11,South,180,1.1,1.6,92,0.00,,,0.00,WUHU216HW,2013-11-12 19:01:00,
2013-11-12 11:06:00,51.8,49.5,30.11,SSE,158,0.9,1.8,92,0.00,,,0.00,WUHU216HW,2013-11-12 19:06:00,
2013-11-12 11:11:00,52.0,49.7,30.11,SSE,158,1.3,1.8,92,0.00,,,0.00,WUHU216HW,2013-11-12 19:11:00,
2013-11-12 11:16:00,52.0,49.7,30.11,South,180,1.3,2.2,92,0.00,,,0.00,WUHU216HW,2013-11-12 19:16:00,
2013-11-12 11:21:00,52.2,49.9,30.11,SE,135,1.1,2.7,92,0.00,,,0.00,WUHU216HW,2013-11-12 19:21:00,
2013-11-12 11:26:00,52.2,49.9,30.11,SSE,158,1.1,2.7,92,0.00,,,0.00,WUHU216HW,2013-11-12 19:26:00,
2013-11-12 11:31:00,52.2,49.9,30.11,SSE,158,1.6,2.7,92,0.00,,,0.00,WUHU216HW,2013-11-12 19:31:00,
2013-11-12 11:36:00,52.6,50.2,30.11,East,90,2.2,2.2,92,0.00,,,0.00,WUHU216HW,2013-11-12 19:36:00,
2013-11-12 11:41:00,52.6,50.2,30.11,SSE,158,2.0,2.5,92,0.00,,,0.00,WUHU216HW,2013-11-12 19:41:00,
2013-11-12 11:46:00,52.9,51.0,30.11,SSE,158,0.7,2.5,93,0.00,,,0.00,WUHU216HW,2013-11-12 19:46:00,
2013-11-12 11:51:00,53.1,51.1,30.11,South,180,1.6,2.0,93,0.00,,,0.00,WUHU216HW,2013-11-12 19:51:00,
2013-11-12 11:56:00,53.5,51.5,30.11,SSW,203,2.5,2.9,93,0.00,,,0.00,WUHU216HW,2013-11-12 19:56:00,
2013-11-12 12:01:00,53.6,51.7,30.11,SSE,158,3.4,3.4,93,0.00,,,0.00,WUHU216HW,2013-11-12 20:01:00,
2013-11-12 12:06:00,53.8,51.9,30.11,South,180,2.9,4.0,93,0.00,,,0.00,WUHU216HW,2013-11-12 20:06:00,
2013-11-12 12:11:00,54.2,52.2,30.11,SSW,203,1.8,4.0,93,0.00,,,0.00,WUHU216HW,2013-11-12 20:11:00,
2013-11-12 12:16:00,54.4,52.4,30.11,SSW,203,3.4,4.5,93,0.00,,,0.00,WUHU216HW,2013-11-12 20:16:00,
2013-11-12 12:21:00,54.7,52.8,30.11,South,180,3.4,6.3,93,0.00,,,0.00,WUHU216HW,2013-11-12 20:21:00,
2013-11-12 12:26:00,54.9,52.6,30.11,SSW,203,5.4,6.3,92,0.00,,,0.00,WUHU216HW,2013-11-12 20:26:00,
2013-11-12 12:31:00,54.9,52.6,30.11,SW,225,1.8,5.8,92,0.00,,,0.00,WUHU216HW,2013-11-12 20:31:00,
2013-11-12 12:36:00,55.1,52.7,30.11,SW,225,4.7,5.8,92,0.00,,,0.00,WUHU216HW,2013-11-12 20:36:00,
2013-11-12 12:41:00,55.1,52.7,30.11,SSE,158,2.5,4.7,92,0.00,,,0.00,WUHU216HW,2013-11-12 20:41:00,
2013-11-12 12:46:00,55.3,52.9,30.11,SSW,203,4.0,6.7,92,0.00,,,0.00,WUHU216HW,2013-11-12 20:46:00,
2013-11-12 12:51:00,55.4,53.1,30.11,South,180,3.1,6.7,92,0.00,,,0.00,WUHU216HW,2013-11-12 20:51:00,
2013-11-12 12:56:00,55.6,53.3,30.12,South,180,1.8,4.7,92,0.00,,,0.00,WUHU216HW,2013-11-12 20:56:00,
2013-11-12 13:01:00,55.6,53.0,30.12,SSW,203,3.8,4.7,91,0.00,,,0.00,WUHU216HW,2013-11-12 21:01:00,
2013-11-12 13:06:00,55.6,53.0,30.12,South,180,3.8,4.7,91,0.00,,,0.00,WUHU216HW,2013-11-12 21:06:00,
2013-11-12 13:11:00,55.8,53.2,30.12,SSW,203,2.5,6.3,91,0.00,,,0.00,WUHU216HW,2013-11-12 21:11:00,
2013-11-12 13:16:00,55.8,53.2,30.12,South,180,1.1,6.3,91,0.00,,,0.00,WUHU216HW,2013-11-12 21:16:00,
2013-11-12 13:21:00,55.8,53.2,30.12,SSW,203,4.0,5.4,91,0.00,,,0.00,WUHU216HW,2013-11-12 21:21:00,
2013-11-12 13:26:00,56.0,53.1,30.11,South,180,3.8,5.8,90,0.00,,,0.00,WUHU216HW,2013-11-12 21:26:00,
2013-11-12 13:31:00,56.0,53.1,30.11,SSE,158,3.4,5.8,90,0.00,,,0.00,WUHU216HW,2013-11-12 21:31:00,
2013-11-12 13:36:00,56.0,53.1,30.12,WNW,293,3.4,4.0,90,0.00,,,0.00,WUHU216HW,2013-11-12 21:36:00,
2013-11-12 13:41:00,56.2,53.3,30.11,South,180,6.9,6.9,90,0.00,,,0.00,WUHU216HW,2013-11-12 21:41:00,
2013-11-12 13:46:00,56.2,53.3,30.12,SW,225,3.4,6.9,90,0.00,,,0.00,WUHU216HW,2013-11-12 21:46:00,
2013-11-12 13:51:00,56.5,53.6,30.12,SW,225,3.8,6.3,90,0.00,,,0.00,WUHU216HW,2013-11-12 21:51:00,
2013-11-12 13:56:00,56.7,53.5,30.12,South,180,4.5,8.5,89,0.00,,,0.00,WUHU216HW,2013-11-12 21:56:00,
2013-11-12 14:01:00,56.9,53.6,30.12,South,180,5.1,8.5,89,0.00,,,0.00,WUHU216HW,2013-11-12 22:01:00,
2013-11-12 14:06:00,56.9,53.6,30.12,SSE,158,1.6,6.9,89,0.00,,,0.00,WUHU216HW,2013-11-12 22:06:00,
2013-11-12 14:11:00,56.9,53.6,30.12,South,180,4.0,6.9,89,0.00,,,0.00,WUHU216HW,2013-11-12 22:11:00,
2013-11-12 14:16:00,56.7,53.5,30.12,WSW,248,1.8,6.9,89,0.00,,,0.00,WUHU216HW,2013-11-12 22:16:00,
2013-11-12 14:21:00,56.5,53.3,30.12,SE,135,3.6,5.1,89,0.00,,,0.00,WUHU216HW,2013-11-12 22:21:00,
2013-11-12 14:26:00,56.5,53.3,30.13,South,180,1.8,4.5,89,0.00,,,0.00,WUHU216HW,2013-11-12 22:26:00,
2013-11-12 14:31:00,56.9,53.4,30.13,SW,225,3.6,4.5,88,0.00,,,0.00,WUHU216HW,2013-11-12 22:31:00,
2013-11-12 14:36:00,56.9,53.4,30.12,South,180,1.6,6.3,88,0.00,,,0.00,WUHU216HW,2013-11-12 22:36:00,
2013-11-12 14:41:00,57.1,53.6,30.13,SW,225,2.5,6.3,88,0.00,,,0.00,WUHU216HW,2013-11-12 22:41:00,
2013-11-12 14:46:00,57.2,53.7,30.13,South,180,3.4,5.6,88,0.00,,,0.00,WUHU216HW,2013-11-12 22:46:00,
2013-11-12 14:51:00,57.2,53.7,30.13,West,270,1.8,4.5,88,0.00,,,0.00,WUHU216HW,2013-11-12 22:51:00,
2013-11-12 14:56:00,57.2,53.7,30.13,SSW,203,2.2,4.7,88,0.00,,,0.00,WUHU216HW,2013-11-12 22:56:00,
2013-11-12 15:01:00,57.1,53.6,30.13,SSW,203,2.2,4.7,88,0.00,,,0.00,WUHU216HW,2013-11-12 23:01:00,
2013-11-12 15:06:00,57.2,53.4,30.13,SW,225,2.7,4.7,87,0.00,,,0.00,WUHU216HW,2013-11-12 23:06:00,
2013-11-12 15:11:00,57.1,53.2,30.14,WSW,248,1.8,4.7,87,0.00,,,0.00,WUHU216HW,2013-11-12 23:11:00,
2013-11-12 15:16:00,57.2,53.4,30.14,SW,225,2.2,3.4,87,0.00,,,0.00,WUHU216HW,2013-11-12 23:16:00,
2013-11-12 15:21:00,57.2,53.4,30.14,South,180,1.6,3.4,87,0.00,,,0.00,WUHU216HW,2013-11-12 23:21:00,
2013-11-12 15:26:00,57.2,53.4,30.14,SSE,158,3.1,3.1,87,0.00,,,0.00,WUHU216HW,2013-11-12 23:26:00,
2013-11-12 15:31:00,57.2,53.4,30.14,South,180,2.5,3.6,87,0.00,,,0.00,WUHU216HW,2013-11-12 23:31:00,
2013-11-12 15:36:00,57.2,53.4,30.14,South,180,4.5,4.5,87,0.00,,,0.00,WUHU216HW,2013-11-12 23:36:00,
2013-11-12 15:41:00,57.2,53.4,30.14,South,180,2.5,4.5,87,0.00,,,0.00,WUHU216HW,2013-11-12 23:41:00,
2013-11-12 15:46:00,57.2,53.4,30.14,SSW,203,0.7,4.5,87,0.00,,,0.00,WUHU216HW,2013-11-12 23:46:00,
2013-11-12 15:51:00,57.2,53.4,30.14,South,180,1.3,4.0,87,0.00,,,0.00,WUHU216HW,2013-11-12 23:51:00,
2013-11-12 15:56:00,57.2,53.4,30.14,SSW,203,1.1,4.0,87,0.00,,,0.00,WUHU216HW,2013-11-12 23:56:00,
2013-11-12 16:01:00,57.2,53.4,30.14,SSW,203,0.9,5.8,87,0.00,,,0.00,WUHU216HW,2013-11-13 00:01:00,
2013-11-12 16:06:00,57.2,53.4,30.14,South,180,1.6,5.8,87,0.00,,,0.00,WUHU216HW,2013-11-13 00:06:00,
2013-11-12 16:11:00,57.2,53.4,30.14,SSW,203,0.9,2.9,87,0.00,,,0.00,WUHU216HW,2013-11-13 00:11:00,
2013-11-12 16:17:00,57.1,53.2,30.14,SW,225,1.8,3.4,87,0.00,,,0.00,WUHU216HW,2013-11-13 00:17:00,
2013-11-12 16:22:00,57.1,53.2,30.14,South,180,1.8,3.4,87,0.00,,,0.00,WUHU216HW,2013-11-13 00:22:00,
2013-11-12 16:27:00,56.9,53.0,30.14,SSW,203,2.0,2.5,87,0.00,,,0.00,WUHU216HW,2013-11-13 00:27:00,
2013-11-12 16:32:00,56.9,53.0,30.14,SSW,203,1.8,2.5,87,0.00,,,0.00,WUHU216HW,2013-11-13 00:32:00,
2013-11-12 16:37:00,56.9,53.0,30.14,South,180,1.8,3.6,87,0.00,,,0.00,WUHU216HW,2013-11-13 00:37:00,
2013-11-12 16:42:00,56.7,52.8,30.14,SE,135,2.7,4.3,87,0.00,,,0.00,WUHU216HW,2013-11-13 00:42:00,
2013-11-12 16:47:00,56.7,52.8,30.14,South,180,2.5,4.3,87,0.00,,,0.00,WUHU216HW,2013-11-13 00:47:00,
2013-11-12 16:52:00,56.7,52.8,30.15,South,180,2.5,3.8,87,0.00,,,0.00,WUHU216HW,2013-11-13 00:52:00,
2013-11-12 16:57:00,56.7,52.8,30.15,SSW,203,1.3,2.5,87,0.00,,,0.00,WUHU216HW,2013-11-13 00:57:00,
2013-11-12 17:02:00,56.7,52.8,30.15,WSW,248,0.9,2.9,87,0.00,,,0.00,WUHU216HW,2013-11-13 01:02:00,
2013-11-12 17:07:00,56.5,52.7,30.15,SSW,203,0.9,3.1,87,0.00,,,0.00,WUHU216HW,2013-11-13 01:07:00,
2013-11-12 17:12:00,56.5,52.7,30.15,SSW,203,1.6,3.1,87,0.00,,,0.00,WUHU216HW,2013-11-13 01:12:00,
2013-11-12 17:17:00,56.5,52.7,30.15,SSW,203,1.8,3.4,87,0.00,,,0.00,WUHU216HW,2013-11-13 01:17:00,
2013-11-12 17:22:00,56.5,52.7,30.15,SSE,158,1.8,4.3,87,0.00,,,0.00,WUHU216HW,2013-11-13 01:22:00,
2013-11-12 17:27:00,56.5,52.7,30.15,SW,225,2.0,4.3,87,0.00,,,0.00,WUHU216HW,2013-11-13 01:27:00,
2013-11-12 17:32:00,56.5,52.7,30.15,SSW,203,1.1,3.1,87,0.00,,,0.00,WUHU216HW,2013-11-13 01:32:00,
2013-11-12 17:37:00,56.5,52.7,30.15,SSE,158,1.1,3.6,87,0.00,,,0.00,WUHU216HW,2013-11-13 01:37:00,
2013-11-12 17:42:00,56.3,52.5,30.16,SSW,203,2.9,4.0,87,0.00,,,0.00,WUHU216HW,2013-11-13 01:42:00,
2013-11-12 17:47:00,56.3,52.5,30.16,SW,225,5.4,5.4,87,0.00,,,0.00,WUHU216HW,2013-11-13 01:47:00,
2013-11-12 17:52:00,56.3,52.5,30.16,SW,225,1.3,5.4,87,0.00,,,0.00,WUHU216HW,2013-11-13 01:52:00,
2013-11-12 17:57:00,56.3,52.5,30.16,SSW,203,1.6,5.4,87,0.00,,,0.00,WUHU216HW,2013-11-13 01:57:00,
2013-11-12 18:02:00,56.2,52.3,30.16,South,180,1.8,2.7,87,0.00,,,0.00,WUHU216HW,2013-11-13 02:02:00,
2013-11-12 18:07:00,56.3,52.5,30.16,SW,225,2.5,3.4,87,0.00,,,0.00,WUHU216HW,2013-11-13 02:07:00,
2013-11-12 18:12:00,56.2,52.3,30.16,SSW,203,1.3,4.0,87,0.00,,,0.00,WUHU216HW,2013-11-13 02:12:00,
2013-11-12 18:17:00,56.2,52.3,30.16,SW,225,1.6,4.0,87,0.00,,,0.00,WUHU216HW,2013-11-13 02:17:00,
2013-11-12 18:22:00,56.0,52.1,30.16,South,180,2.5,4.0,87,0.00,,,0.00,WUHU216HW,2013-11-13 02:22:00,
2013-11-12 18:27:00,55.8,52.3,30.16,SSW,203,1.1,4.0,88,0.00,,,0.00,WUHU216HW,2013-11-13 02:27:00,
2013-11-12 18:32:00,55.8,52.3,30.16,SSE,158,2.0,4.7,88,0.00,,,0.00,WUHU216HW,2013-11-13 02:32:00,
2013-11-12 18:37:00,55.8,52.3,30.16,SW,225,2.5,4.7,88,0.00,,,0.00,WUHU216HW,2013-11-13 02:37:00,
2013-11-12 18:42:00,55.8,52.3,30.16,SSW,203,0.4,4.0,88,0.00,,,0.00,WUHU216HW,2013-11-13 02:42:00,
2013-11-12 18:47:00,55.6,52.1,30.16,SSW,203,1.3,3.4,88,0.00,,,0.00,WUHU216HW,2013-11-13 02:47:00,
2013-11-12 18:52:00,55.6,52.1,30.16,SW,225,2.2,4.7,88,0.00,,,0.00,WUHU216HW,2013-11-13 02:52:00,
2013-11-12 18:57:00,55.6,52.1,30.16,WSW,248,0.7,4.7,88,0.00,,,0.00,WUHU216HW,2013-11-13 02:57:00,
2013-11-12 19:02:00,55.6,52.1,30.16,South,180,0.9,3.6,88,0.00,,,0.00,WUHU216HW,2013-11-13 03:02:00,
2013-11-12 19:07:00,55.4,51.9,30.16,WSW,248,2.2,3.6,88,0.00,,,0.00,WUHU216HW,2013-11-13 03:07:00,
2013-11-12 19:12:00,55.4,51.9,30.16,South,180,1.3,2.7,88,0.00,,,0.00,WUHU216HW,2013-11-13 03:12:00,
2013-11-12 19:17:00,55.3,51.8,30.16,SSW,203,2.2,3.4,88,0.00,,,0.00,WUHU216HW,2013-11-13 03:17:00,
2013-11-12 19:22:00,55.1,51.6,30.17,West,270,0.9,3.4,88,0.00,,,0.00,WUHU216HW,2013-11-13 03:22:00,
2013-11-12 19:27:00,55.1,51.6,30.17,SW,225,0.7,3.1,88,0.00,,,0.00,WUHU216HW,2013-11-13 03:27:00,
2013-11-12 19:32:00,55.1,51.8,30.17,SSW,203,2.5,4.3,89,0.00,,,0.00,WUHU216HW,2013-11-13 03:32:00,
2013-11-12 19:37:00,54.9,51.7,30.17,South,180,2.0,4.3,89,0.00,,,0.00,WUHU216HW,2013-11-13 03:37:00,
2013-11-12 19:42:00,54.7,51.5,30.17,SSW,203,1.1,2.7,89,0.00,,,0.00,WUHU216HW,2013-11-13 03:42:00,
2013-11-12 19:47:00,54.7,51.5,30.17,SSW,203,4.0,4.0,89,0.00,,,0.00,WUHU216HW,2013-11-13 03:47:00,
2013-11-12 19:52:00,54.5,51.3,30.17,SSW,203,1.3,4.0,89,0.00,,,0.00,WUHU216HW,2013-11-13 03:52:00,
2013-11-12 19:57:00,54.5,51.3,30.17,South,180,1.6,4.0,89,0.00,,,0.00,WUHU216HW,2013-11-13 03:57:00,
2013-11-12 20:02:00,54.4,51.2,30.18,SW,225,1.1,2.5,89,0.00,,,0.00,WUHU216HW,2013-11-13 04:02:00,
2013-11-12 20:07:00,54.4,51.2,30.18,WSW,248,0.7,2.7,89,0.00,,,0.00,WUHU216HW,2013-11-13 04:07:00,
2013-11-12 20:12:00,54.4,51.2,30.18,SSW,203,1.6,4.0,89,0.00,,,0.00,WUHU216HW,2013-11-13 04:12:00,
2013-11-12 20:17:00,54.4,51.2,30.18,SSW,203,2.2,4.5,89,0.00,,,0.00,WUHU216HW,2013-11-13 04:17:00,
2013-11-12 20:22:00,54.4,51.2,30.18,SSW,203,4.0,4.5,89,0.00,,,0.00,WUHU216HW,2013-11-13 04:22:00,
2013-11-12 20:27:00,54.4,51.2,30.18,South,180,1.6,4.0,89,0.00,,,0.00,WUHU216HW,2013-11-13 04:27:00,
2013-11-12 20:32:00,54.2,51.0,30.18,SW,225,2.2,4.0,89,0.00,,,0.00,WUHU216HW,2013-11-13 04:32:00,
2013-11-12 20:37:00,54.0,50.9,30.19,South,180,1.8,3.1,89,0.00,,,0.00,WUHU216HW,2013-11-13 04:37:00,
2013-11-12 20:42:00,54.2,51.0,30.19,SSE,158,0.4,2.5,89,0.00,,,0.00,WUHU216HW,2013-11-13 04:42:00,
2013-11-12 20:47:00,54.2,51.3,30.19,SSW,203,1.8,3.4,90,0.00,,,0.00,WUHU216HW,2013-11-13 04:47:00,
2013-11-12 20:52:00,54.2,51.3,30.19,South,180,1.8,3.4,90,0.00,,,0.00,WUHU216HW,2013-11-13 04:52:00,
2013-11-12 20:57:00,54.4,51.5,30.19,SSW,203,2.7,3.4,90,0.00,,,0.00,WUHU216HW,2013-11-13 04:57:00,
2013-11-12 21:01:00,54.4,51.5,30.19,SW,225,2.2,3.4,90,0.00,,,0.00,WUHU216HW,2013-11-13 05:01:00,
2013-11-12 21:06:00,54.4,51.5,30.19,SSW,203,2.0,3.8,90,0.00,,,0.00,WUHU216HW,2013-11-13 05:06:00,
2013-11-12 21:11:00,54.4,51.5,30.19,South,180,4.3,4.3,90,0.00,,,0.00,WUHU216HW,2013-11-13 05:11:00,
2013-11-12 21:16:00,54.2,51.3,30.19,SSW,203,2.9,4.3,90,0.00,,,0.00,WUHU216HW,2013-11-13 05:16:00,
2013-11-12 21:21:00,54.2,51.3,30.19,SSW,203,2.0,4.3,90,0.00,,,0.00,WUHU216HW,2013-11-13 05:21:00,
2013-11-12 21:26:00,54.0,51.1,30.19,SSE,158,1.8,6.3,90,0.00,,,0.00,WUHU216HW,2013-11-13 05:26:00,
2013-11-12 21:31:00,54.0,51.1,30.19,SW,225,2.9,7.8,90,0.00,,,0.00,WUHU216HW,2013-11-13 05:31:00,
2013-11-12 21:36:00,53.8,50.9,30.19,SSW,203,3.4,7.8,90,0.00,,,0.00,WUHU216HW,2013-11-13 05:36:00,
2013-11-12 21:41:00,53.8,50.9,30.20,SSW,203,2.5,4.7,90,0.00,,,0.00,WUHU216HW,2013-11-13 05:41:00,
2013-11-12 21:46:00,53.8,50.9,30.19,South,180,1.8,4.7,90,0.00,,,0.00,WUHU216HW,2013-11-13 05:46:00,
2013-11-12 21:51:00,53.6,50.8,30.20,SW,225,1.8,3.4,90,0.00,,,0.00,WUHU216HW,2013-11-13 05:51:00,
2013-11-12 21:56:00,53.6,50.8,30.20,SW,225,2.9,5.4,90,0.00,,,0.00,WUHU216HW,2013-11-13 05:56:00,
2013-11-12 22:01:00,53.6,50.8,30.20,South,180,1.1,6.3,90,0.00,,,0.00,WUHU216HW,2013-11-13 06:01:00,
2013-11-12 22:06:00,53.6,50.8,30.20,SSW,203,1.8,6.3,90,0.00,,,0.00,WUHU216HW,2013-11-13 06:06:00,
2013-11-12 22:11:00,53.6,50.8,30.20,SW,225,2.5,5.4,90,0.00,,,0.00,WUHU216HW,2013-11-13 06:11:00,
2013-11-12 22:16:00,53.6,50.8,30.20,SW,225,3.4,5.4,90,0.00,,,0.00,WUHU216HW,2013-11-13 06:16:00,
2013-11-12 22:21:00,53.6,50.8,30.20,South,180,3.4,3.6,90,0.00,,,0.00,WUHU216HW,2013-11-13 06:21:00,
2013-11-12 22:26:00,53.5,50.9,30.21,SSW,203,2.2,3.6,91,0.00,,,0.00,WUHU216HW,2013-11-13 06:26:00,
2013-11-12 22:31:00,53.5,50.9,30.20,SSW,203,2.2,3.6,91,0.00,,,0.00,WUHU216HW,2013-11-13 06:31:00,
2013-11-12 22:36:00,53.3,50.7,30.21,SW,225,1.1,3.4,91,0.00,,,0.00,WUHU216HW,2013-11-13 06:36:00,
2013-11-12 22:41:00,53.3,50.7,30.21,WSW,248,2.2,3.6,91,0.00,,,0.00,WUHU216HW,2013-11-13 06:41:00,
2013-11-12 22:46:00,53.3,50.7,30.21,SSE,158,3.1,3.6,91,0.00,,,0.00,WUHU216HW,2013-11-13 06:46:00,
2013-11-12 22:51:00,53.3,50.7,30.21,South,180,1.1,4.3,91,0.00,,,0.00,WUHU216HW,2013-11-13 06:51:00,
2013-11-12 22:56:00,53.3,50.7,30.21,SSW,203,3.6,4.3,91,0.00,,,0.00,WUHU216HW,2013-11-13 06:56:00,
2013-11-12 23:01:00,53.3,50.7,30.21,SSW,203,4.0,4.0,91,0.00,,,0.00,WUHU216HW,2013-11-13 07:01:00,
2013-11-12 23:06:00,53.3,50.7,30.21,SW,225,2.5,4.9,91,0.00,,,0.00,WUHU216HW,2013-11-13 07:06:00,
2013-11-12 23:11:00,53.1,50.5,30.21,SSW,203,3.8,4.9,91,0.00,,,0.00,WUHU216HW,2013-11-13 07:11:00,
2013-11-12 23:16:00,53.3,50.7,30.21,SSE,158,3.8,5.1,91,0.00,,,0.00,WUHU216HW,2013-11-13 07:16:00,
2013-11-12 23:21:00,53.1,50.5,30.21,South,180,1.1,5.1,91,0.00,,,0.00,WUHU216HW,2013-11-13 07:21:00,
2013-11-12 23:26:00,53.1,50.5,30.21,SSW,203,2.7,5.1,91,0.00,,,0.00,WUHU216HW,2013-11-13 07:26:00,
2013-11-12 23:31:00,53.1,50.5,30.21,South,180,1.8,5.4,91,0.00,,,0.00,WUHU216HW,2013-11-13 07:31:00,
2013-11-12 23:36:00,52.9,50.3,30.21,South,180,3.6,6.5,91,0.00,,,0.00,WUHU216HW,2013-11-13 07:36:00,
2013-11-12 23:41:00,52.9,50.3,30.21,SSW,203,1.1,6.5,91,0.00,,,0.00,WUHU216HW,2013-11-13 07:41:00,
2013-11-12 23:46:00,52.9,50.3,30.21,SW,225,2.2,3.6,91,0.00,,,0.00,WUHU216HW,2013-11-13 07:46:00,
2013-11-12 23:51:00,52.9,50.3,30.21,South,180,3.4,5.8,91,0.00,,,0.00,WUHU216HW,2013-11-13 07:51:00,
2013-11-12 23:56:00,52.9,50.3,30.21,West,270,4.3,5.8,91,0.00,,,0.00,WUHU216HW,2013-11-13 07:56:00,